SCP
1 1 1 1 1 1 1 1 1 0 0 0 0 1 1 1 1 1 1 1 0 0 0 0 0 0 0 0 0 0 0 0 0 0 0 0 0 0 1 1 1 0 0
1 1 1 1 1 1 1 1 1 0 0 1 1 1 1 1 1 1 1 1 0 0 0 0 0 0 0 0 0 0 0 0 0 0 0 0 0 0 0 0 0 0 0
1 1 0 0 0 0 0 1 1 1 1 1 1 1 1 1 1 1 1 1 1 1 1 0 0 0 0 0 0 0 0 0 0 0 0 0 0 0 0 0 0 0 0
1 1 1 0 0 0 0 0 1 1 1 1 1 1 1 1 1 1 1 1 1 1 1 1 1 1 0 0 0 1 1 1 1 0 0 0 0 0 0 0 0 0 0
1 1 1 0 0 0 0 0 1 1 1 1 1 1 1 1 1 1 1 1 1 1 1 1 1 1 0 0 0 1 1 1 1 1 1 1 1 0 0 0 0 0 0
1 1 0 0 0 0 0 1 1 1 1 1 1 1 1 1 1 1 1 1 1 1 1 1 1 0 0 0 0 0 0 0 0 0 0 1 1 0 0 0 0 0 0
1 0 0 0 0 0 0 0 1 1 1 1 1 1 1 1 1 1 0 1 1 1 1 1 1 0 0 0 0 0 0 0 0 0 0 0 0 0 0 0 0 0 0
0 0 0 0 0 0 1 1 0 1 1 1 1 1 1 1 0 0 0 0 0 0 0 0 0 0 0 0 0 0 0 0 0 0 0 0 0 0 0 0 0 0 0
0 0 0 0 0 0 0 1 0 0 0 1 1 1 1 0 0 0 0 0 0 0 0 0 0 0 0 0 0 0 0 0 0 0 0 0 0 0 0 0 0 0 0
0 0 0 0 0 0 0 0 0 0 0 0 0 0 0 0 0 0 0 0 0 0 0 0 0 0 0 0 0 0 0 0 0 0 0 0 0 0 0 0 0 0 0
0 0 0 0 0 0 0 0 0 0 0 0 0 0 0 0 0 0 0 0 0 0 0 0 0 0 0 0 0 0 0 0 0 0 0 0 0 0 0 0 0 0 0
1 0 0 0 0 0 0 0 0 0 0 0 0 0 0 0 0 0 0 0 0 0 0 0 0 0 0 0 0 0 0 0 0 0 0 0 0 0 0 0 0 0 0
1 0 0 0 0 0 0 0 0 0 0 0 0 0 0 0 0 0 0 0 0 0 0 0 0 0 0 0 0 0 0 0 0 0 0 0 0 0 0 0 0 0 0
1 0 0 0 0 0 0 0 0 0 0 0 0 0 0 0 0 0 0 0 0 0 0 0 0 0 0 0 0 0 0 0 0 0 0 0 0 0 0 0 0 0 0
1 0 0 0 0 0 0 0 0 0 0 0 0 0 0 0 0 0 0 0 0 0 0 0 0 0 0 0 0 0 0 0 0 0 0 0 0 0 0 0 0 0 0
1 1 1 0 0 0 0 0 0 0 0 0 0 0 0 0 0 0 0 0 0 0 0 0 0 0 0 0 0 0 0 0 0 0 0 0 0 0 0 0 0 0 0
0 1 0 0 0 0 0 0 0 0 0 0 0 0 0 0 0 0 0 0 0 0 0 0 0 0 0 0 0 0 0 0 0 0 0 0 0 0 0 0 0 0 0
0 0 0 0 0 0 0 0 0 0 0 0 0 0 0 0 0 0 0 0 0 0 0 0 0 0 0 0 0 0 0 0 0 0 0 0 0 0 0 0 0 0 0
0 0 0 0 0 0 0 0 0 0 0 0 0 0 0 0 0 0 0 0 0 0 0 0 0 0 0 0 0 0 0 0 0 0 0 0 0 0 0 0 0 0 0
0 0 0 0 0 0 0 0 0 0 0 0 0 0 0 0 0 0 0 0 0 0 0 0 0 0 0 0 0 0 0 0 0 0 0 0 0 0 0 0 0 0 0
0 0 0 0 0 0 0 0 0 0 0 0 0 0 0 0 0 0 0 0 0 0 0 0 0 0 0 0 0 0 0 0 0 0 0 0 0 0 0 0 0 0 0
0 0 0 0 0 0 0 0 0 0 0 0 0 0 0 0 0 0 0 0 0 0 0 0 0 0 0 0 0 0 0 0 0 0 0 0 0 0 0 0 0 0 0
0 0 0 0 0 0 0 0 0 0 0 0 0 0 0 0 0 0 0 0 0 0 0 0 0 0 0 0 0 0 0 0 0 0 0 0 0 0 0 0 0 0 0
0 0 0 0 0 0 0 0 0 0 0 0 0 0 0 0 0 0 0 0 0 0 0 0 0 0 0 0 0 0 0 0 0 0 0 0 0 0 0 0 0 0 0
0 0 0 0 0 0 0 0 0 0 0 0 0 0 0 0 0 0 0 0 0 0 0 0 0 0 0 0 0 0 0 0 0 0 0 0 0 0 0 0 0 0 0
0 0 0 0 0 0 0 0 0 0 0 0 0 0 0 0 0 0 0 0 0 0 0 0 0 0 0 0 0 0 0 0 0 0 0 0 0 0 0 0 0 0 0
Wind_Speed
4 4 4 4 4 4 4 5 5 4 4 5 5 5 5 5 4 4 4 5 6 5 4 5 4 3 3 3 3 3 3 3 3 1 1 1 2 3 3 3 4 4 4
4 3 3 3 3 3 3 3 4 4 4 5 5 5 5 5 4 5 5 5 5 5 5 4 4 3 4 3 3 3 3 3 4 4 1 1 2 2 3 4 4 4 4
3 3 3 3 3 3 3 3 3 4 3 3 4 4 4 4 4 5 5 4 5 4 4 4 4 4 4 3 3 3 3 3 3 4 3 1 2 2 3 4 5 4 5
4 4 3 2 2 2 2 2 2 3 3 3 3 3 3 4 4 4 4 4 4 3 3 3 4 5 5 4 3 3 3 4 4 4 3 2 2 2 2 3 3 4 4
4 3 2 2 2 2 2 2 2 2 3 3 3 2 2 3 3 4 4 4 4 3 2 2 2 3 3 3 3 4 5 4 4 4 3 2 2 2 2 2 3 3 4
4 3 3 3 3 3 3 3 3 3 3 3 2 2 2 1 2 4 5 4 4 4 4 4 4 4 7 8 8 7 6 5 4 4 3 3 2 2 2 3 3 3 2
4 4 3 3 4 3 3 4 3 3 3 3 3 3 3 2 3 5 6 5 5 4 5 5 4 5 7 7 10 12 11 10 7 5 5 3 3 2 3 4 3 3 3
4 4 3 4 4 4 4 4 3 3 3 3 3 3 4 4 5 7 8 6 6 5 5 5 6 6 7 8 10 11 10 9 7 6 6 5 4 3 3 4 5 5 4
4 4 3 4 4 4 4 3 3 4 4 4 4 4 5 5 7 8 9 6 6 7 6 6 7 7 11 13 12 12 11 9 13 16 15 13 12 11 7 5 4 4 3
4 3 3 4 4 4 3 3 3 4 4 4 5 5 5 5 6 8 8 6 7 6 6 6 9 9 11 12 10 11 11 8 8 9 11 11 10 11 11 6 4 4 3
4 4 4 4 4 4 4 4 4 4 5 5 6 5 5 5 7 8 8 6 7 7 6 5 6 12 12 12 10 9 11 9 8 8 7 7 7 7 7 6 5 4 4
5 5 5 4 4 4 4 4 4 5 6 5 5 5 5 5 6 7 9 9 8 8 6 6 7 12 12 12 10 12 13 10 7 6 6 6 5 5 5 5 6 5 4
6 5 5 5 4 4 4 4 4 4 4 4 4 4 4 4 5 9 10 11 11 7 7 11 12 12 12 10 13 13 9 6 6 6 6 4 3 3 3 4 5 5 5
6 5 4 5 4 4 3 3 3 3 4 4 4 4 4 3 3 4 5 7 10 9 8 12 14 13 10 10 9 7 6 5 5 5 5 4 3 3 4 3 3 3 4
6 5 5 4 5 5 4 4 3 2 2 4 4 4 5 4 3 6 6 5 6 7 9 7 6 6 6 6 6 5 5 5 5 4 4 4 4 4 4 3 3 3 3
6 5 4 4 4 4 5 6 10 8 9 7 6 5 4 6 9 10 10 11 11 12 9 7 6 6 6 5 5 5 4 4 4 4 4 4 4 4 3 3 3 3 3
5 5 4 4 4 4 5 6 5 7 11 11 9 8 9 11 12 12 13 13 11 10 7 6 6 5 5 5 4 4 4 3 3 4 4 4 4 3 3 3 3 2 2
5 5 5 4 4 4 5 5 5 6 5 5 7 9 10 11 12 12 13 11 7 5 5 6 5 5 5 5 4 4 4 4 3 3 3 3 3 3 3 2 2 2 2
5 4 4 4 4 4 5 5 5 6 6 5 5 6 8 9 10 10 8 6 6 5 5 5 5 5 4 4 4 4 4 4 4 3 3 3 3 3 2 2 2 2 2
4 8 7 5 5 5 5 5 5 6 6 5 5 4 4 5 5 5 4 5 5 5 5 5 4 4 4 4 4 4 4 3 3 3 3 2 2 2 2 2 1 1 1
5 6 8 6 4 4 5 5 5 5 5 5 4 4 5 5 5 5 4 4 4 5 4 4 4 4 4 4 4 4 4 3 3 2 2 2 2 2 1 1 1 1 1
5 5 4 5 5 5 5 5 5 5 5 5 4 4 6 4 4 4 4 3 3 3 3 4 3 3 4 4 4 4 4 3 3 3 2 2 2 2 1 1 0 1 1
5 6 5 5 5 6 5 5 4 4 4 4 4 4 4 4 4 4 4 3 3 3 3 3 4 3 3 3 3 4 4 4 3 4 3 3 2 2 1 1 0 1 1
5 6 6 5 5 5 5 4 4 4 4 4 4 4 4 4 4 4 4 3 3 3 3 3 4 5 6 4 3 3 3 3 3 3 4 3 3 2 1 1 1 2 2
5 5 5 5 5 4 4 4 4 4 4 4 4 4 4 4 4 3 3 3 4 3 4 4 4 5 6 7 5 4 4 5 4 4 4 3 3 3 2 2 2 2 3
5 5 4 4 4 4 4 4 4 4 4 4 4 4 4 4 4 4 4 4 4 4 4 4 5 6 6 6 6 6 5 5 5 5 4 3 3 3 3 2 3 3 4
Wind_Direction
164 171 174 181 183 182 190 196 196 194 189 186 189 190 191 191 185 184 195 191 191 194 193 191 202 195 189 187 183 180 181 168 179 180 87 45 60 78 81 91 90 84 78
154 154 165 165 162 175 191 194 187 191 191 188 183 187 194 194 189 188 197 195 190 189 191 189 201 195 194 188 184 187 185 178 169 172 137 77 66 80 85 81 76 79 81
138 142 143 147 156 172 188 190 185 187 185 179 178 186 191 191 191 193 192 188 184 185 186 189 195 186 194 190 183 184 179 165 153 151 146 112 82 80 82 75 68 57 74
133 136 139 144 150 162 161 164 171 163 163 170 173 181 184 178 180 183 180 176 169 168 178 188 190 188 191 181 171 168 152 137 129 129 128 115 98 86 98 98 81 60 58
114 112 117 113 109 114 123 130 130 137 145 144 151 163 169 172 183 178 171 164 157 144 133 133 137 137 144 145 149 150 146 138 134 130 127 111 105 110 114 112 109 92 60
109 104 97 98 94 93 94 98 105 111 112 114 123 133 141 162 148 151 145 138 135 132 123 108 98 96 98 96 97 102 114 133 142 134 129 128 128 122 110 119 123 122 98
111 105 99 101 100 91 91 91 95 97 100 101 101 101 100 97 118 128 129 127 123 123 123 117 104 95 98 101 89 81 76 83 105 127 124 124 130 137 131 116 100 93 93
112 108 103 102 101 96 94 91 87 90 92 93 93 100 99 85 100 115 115 109 105 98 97 104 107 98 99 108 100 86 73 62 74 84 94 90 88 96 111 121 116 101 88
118 116 116 115 108 101 97 91 89 94 88 82 83 90 93 83 91 106 114 106 98 89 84 87 100 101 102 106 103 98 90 79 76 83 82 79 77 76 83 96 98 98 78
135 127 118 118 116 110 102 93 91 98 97 92 81 80 90 88 90 103 112 113 107 99 87 83 88 101 106 106 108 109 105 98 93 84 73 65 64 62 60 63 81 91 90
130 119 113 114 116 114 108 100 101 105 102 96 90 78 76 83 90 95 103 111 117 111 101 91 89 100 101 99 101 104 112 110 97 90 82 71 62 57 53 53 57 79 88
126 120 115 113 115 114 114 109 107 113 109 105 99 86 69 74 88 97 99 103 114 114 112 106 102 102 99 97 94 100 103 101 98 93 86 78 71 62 55 56 60 63 67
125 122 116 108 102 105 115 117 110 110 113 113 111 105 91 80 84 91 98 104 107 105 105 108 105 101 97 91 94 99 101 101 103 99 93 84 72 68 69 66 59 62 60
124 120 116 112 104 96 97 105 114 121 126 125 124 121 112 104 105 109 106 103 100 100 102 101 96 90 87 90 91 87 84 91 99 99 96 84 77 75 66 62 62 53 56
121 118 114 111 112 100 86 73 92 84 126 140 142 143 141 138 137 132 130 123 121 119 116 105 99 98 96 92 87 82 86 93 93 94 97 93 87 80 67 58 61 58 56
125 123 118 114 112 114 111 86 61 72 78 85 100 121 113 118 120 115 111 112 115 121 113 112 112 111 110 109 107 98 90 95 99 104 102 100 98 92 80 64 61 64 57
126 126 120 120 121 120 122 121 108 74 66 71 82 97 107 115 115 114 109 105 107 113 109 116 118 117 115 115 114 110 104 99 102 106 105 103 102 95 85 75 70 64 48
115 118 119 120 122 121 119 119 120 120 106 78 65 83 100 108 114 117 117 108 99 94 108 119 123 122 122 122 121 116 112 108 103 103 104 107 107 102 94 84 72 59 40
115 115 111 109 110 113 115 116 114 112 111 107 97 81 87 98 98 105 114 114 124 121 116 118 123 126 125 125 124 123 122 121 118 116 114 114 111 106 99 90 76 56 39
110 117 114 114 114 115 117 119 118 118 117 116 117 119 118 107 107 110 108 112 120 124 125 127 128 130 132 133 133 129 125 124 125 122 124 121 117 115 115 103 80 48 13
113 120 118 114 114 118 120 122 122 121 122 121 118 119 129 124 124 127 125 124 130 134 136 137 139 141 141 139 138 139 139 139 141 140 138 137 137 131 123 115 93 23 342
113 114 117 117 116 116 117 118 120 121 125 124 115 111 116 117 125 130 132 132 132 135 142 144 146 151 157 158 155 152 152 154 158 158 153 150 149 146 139 128 86 355 335
113 115 112 110 113 116 114 113 118 122 125 126 127 130 134 133 137 143 144 142 140 141 144 149 153 155 158 160 163 165 168 175 180 175 168 167 167 166 166 171 261 307 318
118 121 120 119 119 123 124 124 126 129 131 134 138 142 143 144 146 150 151 148 151 154 159 165 169 170 169 167 168 176 180 177 172 177 180 180 183 185 191 211 246 280 295
120 123 124 127 131 133 133 134 135 137 142 147 150 151 150 151 155 160 162 163 167 171 177 176 174 176 180 182 183 185 178 177 182 182 183 186 192 200 211 232 251 276 289
123 126 127 131 136 142 146 149 151 154 157 159 160 162 166 170 173 175 175 177 178 180 182 186 190 190 189 193 196 192 186 187 188 189 191 194 200 212 220 237 257 270 285